Погода в Жарыке

Погода в Жарыке : погода сейчас, прогноз погоды и архив. Всё, что Вы хотите узнать о погоде в Жарыке!

Поиск расширенной информации на нашем сайте:

Другие новости

Новости СМИ2

Главная страница сайта

Новости сайта

03.07.2017

Напоминаем, что на нашем специализированном сайте Метеоцентр.Азия вы можете получить высокодетализированные автоматические прогнозы погоды по пунктам России, СНГ и мира в авиационном формате (включающие направление и скорость ветра, видимость, явления погоды, количество и форму облачности, нижнюю и верхнюю границу облачности).


Погода в Жарыке - сегодня

Время (UTC), дата Ветер
(°,м/с) 
Видим.   Явления Облачность Т
(°С)
Тd
(°С)
f(%) Тe
(°С)
Pmin
(гПа)
dP
(гПа)
Po
(мм)
O2
(г/м3)
Тmin Tmax R s Состояние
почвы
12 20.10.17 250 (З) 20000 м  в посл. час ливневой дождь  10/10 600 м кучево-дожд. 
[Cb cap]
+6.4 +5.3 93 +5  1019.7  707  277           
15 20.10.17 230 (ЮЗ) н/о    3/0 верхняя 
[Ci fib]
+5.8 +3.5 85 +7  1020.2  0.2  707  278    +7.2  0.6     
18 20.10.17 230 (ЮЗ) н/о    6/0 верхняя 
[Ci fib]
+4.6 +2.7 87 +5  1018.9  -1.5  706  279    +7.2  0.6     
21 20.10.17 230 (ЮЗ) н/о    6/0 средняя, верхняя 
[Ac lent|Ci sp]
+3.8 +0.8 81 +5  1018  -1.1  705  280           
00 21.10.17 230 (ЮЗ) н/о    9/9 600 м 
[Sc]
+5 +2.1 81 +6  1016.4  -1.1  704  278           
03 21.10.17 200 (Ю) 20000 м  гроза, пыльная буря{дождь}  8/8 600 м 
[Sc]
+5.4 +2.1 79 +6  1015.8  -0.5  704  278           
06 21.10.17 230 (ЮЗ) 20000 м    10/10 600 м кучево-дожд. 
[Cb cap]
+8 +4.5 79 +8  1014.4  -0.5  703  274  +3.8         
09 21.10.17 230 (ЮЗ) 20000 м    8/5 600 м кучево-дожд., средняя 
[Cb cap|Ac trans]
+10.8 +3 59 +11  1011.5  -2  702  271           
12 21.10.17 тихо ()   20000 м    9/0 средняя, верхняя 
[Ac lent|Ci fib]
+9.6 +2.8 63 +10  1011.5  -0.3  702  273           
15 21.10.17 тихо ()   н/о    10/10 600 м кучево-дожд. 
[Cb cap]
+6.6 +4.4 86 +7  1012.9  0.5  702  275    +12       
18 21.10.17 230 (ЮЗ) н/о    10/10 600 м кучево-дожд. 
[Cb cap]
+6.4 +5.1 91 +7  1012.8  -0.1  702  275    +12       
21 21.10.17 230 (ЮЗ) н/о    10/10 600 м 
[St]
+6.5 +5.9 96 +6  1012.8  702  275           
00 22.10.17 250 (З) н/о  туман{морось}  ?/?  
+6.8 +6.4 97 +8  1012.9  0.2  702  275           
03 22.10.17 360 (С) 20000 м  в посл. час ливневой дождь{туман}  10/10 600 м кучево-дожд. 
[Cb cap]
+3.3 +2.6 95 +2  1015.9  1.8  703  280         
06 22.10.17 тихо ()   20000 м    10/10 600 м кучево-дожд. 
[Cb cap]
+3.9 +2.2 89 +4  1017.8  1.9  705  280  +3.3       
09 22.10.17 340 (С) 20000 м    8/8 600 м кучево-дожд. 
[Cb cap]
+6.4 +3.2 80 +7  1017.1  705  277           
12 22.10.17 340 (С) 20000 м    4/4 600 м кучево-дожд. 
[Cb cap]
+5.7 +0.8 71 +7  1018.4  706  278           
15 22.10.17 020 (С) н/о    4/3 600 м кучево-дожд., средняя 
[Cb cap|Ac lent]
+1 -0.1 92 +2  1021.4  1.5  707  284    +8       
18 22.10.17 360 (С) н/о    ясно 
+1.6 +0 89 +1  1020.8  -0.4  706  283    +8       
21 22.10.17 050 (СВ) н/о    ясно 
+2 -0.1 86 +3  1020.4  -0.3  706  282           
00 23.10.17 070 (В) н/о    ясно 
+2.8 +0.8 87 +2  1019.6  -0.5  706  281           
03 23.10.17 070 (В) 20000 м    8/0 средняя, верхняя 
[Ac lent|Ci sp]
+4 +2.6 91 +4  1018.6  -0.5  705  280           
06 23.10.17 140 (ЮВ) 20000 м    4/0 средняя, верхняя 
[Ac trans|Ci sp]
+11.5 +5.7 68 +11  1015.6  -0.8  705  271  +1         
09 23.10.17 140 (ЮВ) 20000 м    8/8 600 м кучево-дожд. 
[Cb cap]
+13.2 +4 54 +13  1013.3  -1.7  704  270           
12 23.10.17 140 (ЮВ) 20000 м    6/3 600 м кучево-дожд., средняя, верхняя 
[Cb cap|Ac trans|Ci sp]
+11.2 +3.5 59 +11  1013.2  -0.6  703  271           
Время (UTC), дата Ветер
(°,м/с) 
Видим.   Явления Облачность Т
(°С)
Тd
(°С)
f(%) Тe
(°С)
Pmin
(гПа)
dP
(гПа)
Po
(мм)
O2
(г/м3)
Тmin Tmax R s Состояние
почвы

Для получения пояснительной информации подведите курсор к названию столбца.

ПОГОДА в Жарыке - архив

Всё, что Вы хотите узнать о погоде в Жарыке - удобно и подробно!

Выберите нужную дату (начиная с 1 января 2015* года) и нажмите кнопку "Найти".
Будут отображены архивные сводки погоды по пункту Жарык, начиная с указанной даты.


Отображать данные в формате CSV (для использования в таблицах Excel)


Внимание! Наш архив погоды предназначен исключительно для личного некоммерческого использования в познавательных целях. Если Вам необходимы официальные справки о состоянии погоды (для производственных, юридических, коммерческих и т.п. целей), обращайтесь в органы Росгидромета.

*Примечание: данная дата относится к архиву по метеостанциям СССР (Россия, СНГ, Балтия).
Архив по метеостанциям Зарубежной Европы и Азии (кроме Китая) хранится 10 дней, по другим регионам земного шара (Китай, Африка, Америка, Австралия, Океания) - 1 день.

Жарык - район местоположения метеостанции


Название, широта, долгота, высота метеостанции:
Жарык 48.9°ш. 72.9°д. 656 м над ур. моря [Казахстан]

Дополнительная информация

В oтличие oт бoльшинства пoгoдных сайтoв мы публикуем пoдрoбную метеoинфoрмацию в детальнoм прoфессиoнальнoм фoрмате.

Характеристики температуры и влажнoсти вoздуха измеряются на высoте 2 м в тени вдали oт зданий и деревьев.
Скoрoсть ветра измеряется на высoте 10 м (на урoвне рoста челoвека скoрoсть ветра ниже в 1.5-2 раза). Если метеoстанция нахoдится в гoрoде или в лесу, тo скoрoсть ветра занижена на 2-4 м/с пo сравнению с oткрытым местoм. Скoрoсть ветра над акватoриями крупных рек и oзёр, а также на вершинах хoлмoв на 2-5 м/с выше, чем в oбычных услoвиях.
Атмoсфернoе давление в разных тoчках местнoсти мoжет значительнo oтличаться oт давления на метеoстанции, в зависимoсти oт услoвий рельефа (при пoдъёме на 10 м давление пoнижается примернo на 1 мм рт.ст.).